Tracking 28125 objects as of 4-Oct-2023
HD Live streaming from Space Station
objects crossing your sky now

SL-8 DEB

Track SL-8 DEB now!
10-day predictions


NORAD ID: 21109
Int'l Code: 1991-009K
Perigee: 1,456.3 km
Apogee: 1,738.7 km
Inclination: 74.0 °
Period: 118.0 minutes
Semi major axis: 7968 km
RCS: 0.6993 m2 (medium)
Launch date: February 12, 1991
Source: Commonwealth of Independent States (former USSR) (CIS)
Launch site: PLESETSK MISSILE AND SPACE COMPLEX (PKMTR)

Note: This is SATELLITE DEBRIS
Your satellite tracking list
Your tracking list is empty




NASA's NSSDC Master Catalog

Two Line Element Set (TLE):
1 21109U 91009K   23276.72585810  .00000594  00000-0  55740-2 0  9999
2 21109  74.0336 359.3409 0177219 283.6334 194.7150 12.20495281452908
Source of the keplerian elements: AFSPC